Погода в Шапше

Россия / Вологодская область     60°09′17″N   39°52′09″E
темп.,
°C
ветер,
м/с
пор.,
м/с
влажн.,
%
обл.,
%
осадки,
мм/ч
давл.,
гПа
погр.,
м
28 февраля, вс
вс2800:00−11сз129786 0.2 101321
03:00−10сз229782 0.3 101462
06:00−8сз2297100 0.2 101337
09:00−7сз139795 0.3 101498
12:00−3ссз128995 0.1 1014420
15:00−2сз138896 0.1 1015474
18:00−4зсз2396100 0.1 1016112
21:00−6зсз2294100 0.1 101862
1 марта, пн
пн100:00−8зюз229586 0.0 101826
03:00−8юз399474 0.0 1018194
06:00−6юз399565 0.1 1016337
09:00−3зюз4109482 0.3 1014577
12:000зюз41094100 0.1 1011669
15:00+1зюз51197100 0.2 1009612
18:00+1з51398100 0.7 1005846
21:00+1з51298100 1.1 1004879
2 марта, вт
вт200:000зсз51196100 0.4 1002908
03:000зсз61296100 0.9 10011206
06:00−2зсз51293100 0.6 1001990
09:00−2зсз4119195 0.6 1002789
12:00−1зсз51089100 0.1 1002868
15:00−2зсз5989100 0.1 1003913
18:00−3сз41093100 0.2 1003890
21:00−4сз3109399 0.3 1006456
3 марта, ср
ср300:00−6сз3119456 0.0 1007407
03:00−7сз4119374 0.1 1009561
06:00−8сз41094100 0.1 1010437
09:00−9зсз4109296 0.1 1010388
12:00−4з499187 0.1 1009636
15:00−2з499492 0.2 1007805
18:00−4зсз4995100 0.5 1005720
21:00−4зюз3109499 0.9 1003510
4 марта, чт
чт400:00−4юз3994100 0.0 998377
03:00−3ююз51196100 0.8 993777
06:00−1зюз41094100 1.4 988683
09:00−2зсз5128899 2.9 9851155
12:00−3зсз5991100 0.4 9841006
15:00−3сз51093100 1.3 988903
18:00−7ссз61287100 0.5 993890
21:00−9сз41192100 0.6 997697